| time (UTC) | temp F | wind direction | speed MPH | gust MPH | rain 1hr in | rain 24hr in | rain mn in | humidity % | barometer mb |
| 20260906044305 | 61 | 44 | 0.0 | 0.0 | 0.00 | 0.00 | 0.00 | 95 | 1014.3 |
| 20260906043308 | 62 | 44 | 0.0 | 0.0 | 0.00 | 0.00 | 0.00 | 94 | 1014.1 |
| 20260906042308 | 62 | 44 | 0.0 | 0.0 | 0.00 | 0.00 | 0.00 | 93 | 1014.1 |
| 20260906041302 | 62 | 44 | 0.0 | 0.0 | 0.00 | 0.00 | 0.00 | 94 | 1014.1 |
| 20260906040312 | 62 | 44 | 0.0 | 0.0 | 0.00 | 0.00 | 0.00 | 94 | 1014.3 |
| 20260906035313 | 62 | 44 | 0.0 | 0.0 | 0.00 | 0.00 | 0.00 | 95 | 1014.2 |
| 20260906033131 | 62 | 44 | 0.0 | 0.0 | 0.00 | 0.00 | 0.00 | 93 | 1014.1 |
| 20260906032117 | 62 | 44 | 0.0 | 0.0 | 0.00 | 0.00 | 0.00 | 93 | 1014.1 |
| 20260906025954 | 62 | 44 | 0.0 | 0.0 | 0.00 | 0.00 | 0.00 | 92 | 1014.1 |
| 20260906024948 | 62 | 44 | 0.0 | 0.0 | 0.00 | 0.00 | 0.00 | 93 | 1014.0 |
| 20260906023946 | 62 | 44 | 0.0 | 0.0 | 0.00 | 0.00 | 0.00 | 93 | 1013.9 |
| 20260906022928 | 62 | 44 | 0.0 | 0.0 | 0.00 | 0.00 | 0.00 | 92 | 1013.9 |
| 20260906021936 | 62 | 44 | 0.0 | 0.0 | 0.00 | 0.00 | 0.00 | 92 | 1013.9 |
| 20260906020927 | 62 | 44 | 0.0 | 0.0 | 0.00 | 0.00 | 0.00 | 92 | 1013.9 |
| 20260906013623 | 63 | 44 | 0.0 | 0.0 | 0.00 | 0.00 | 0.00 | 90 | 1013.6 |
| 20260906012618 | 64 | 44 | 0.0 | 0.0 | 0.00 | 0.00 | 0.00 | 88 | 1013.6 |
| 20260906011553 | 64 | 44 | 0.0 | 0.0 | 0.00 | 0.00 | 0.00 | 88 | 1013.5 |
| 20260906005420 | 65 | 44 | 0.0 | 0.0 | 0.00 | 0.00 | 0.00 | 84 | 1013.3 |
| 20260906004414 | 66 | 44 | 0.0 | 0.0 | 0.00 | 0.00 | 0.00 | 81 | 1013.2 |
| 20260906003354 | 66 | 44 | 0.0 | 0.0 | 0.00 | 0.00 | 0.00 | 81 | 1013.2 |
| 20260906001241 | 67 | 44 | 0.0 | 0.0 | 0.00 | 0.00 | 0.00 | 79 | 1013.2 |
| 20260906000241 | 68 | 44 | 0.0 | 0.0 | 0.00 | 0.00 | 0.00 | 77 | 1013.0 |
| 20260905235232 | 69 | 44 | 0.0 | 0.0 | 0.00 | 0.00 | 0.00 | 76 | 1012.9 |
| 20260905234235 | 69 | 44 | 0.0 | 0.0 | 0.00 | 0.00 | 0.00 | 75 | 1012.8 |
| 20260905233247 | 70 | 44 | 0.0 | 2.0 | 0.00 | 0.00 | 0.00 | 73 | 1012.8 |
| 20260905232228 | 71 | 79 | 0.0 | 0.0 | 0.00 | 0.00 | 0.00 | 71 | 1012.9 |
| 20260905230033 | 72 | 62 | 0.0 | 1.0 | 0.00 | 0.00 | 0.00 | 68 | 1012.8 |
| 20260905225028 | 73 | 75 | 0.0 | 1.0 | 0.00 | 0.00 | 0.00 | 71 | 1012.7 |
| 20260905222943 | 72 | 35 | 0.0 | 3.0 | 0.00 | 0.00 | 0.00 | 71 | 1012.7 |
| 20260905221919 | 73 | 40 | 0.0 | 2.0 | 0.00 | 0.00 | 0.00 | 73 | 1012.6 |
| 20260905220910 | 74 | 57 | 0.0 | 1.0 | 0.00 | 0.00 | 0.00 | 72 | 1012.6 |
| 20260905215837 | 74 | 78 | 0.0 | 8.0 | 0.00 | 0.00 | 0.00 | 75 | 1012.4 |
| 20260905213647 | 74 | 59 | 0.0 | 6.0 | 0.00 | 0.00 | 0.00 | 75 | 1012.3 |
| 20260905212658 | 75 | 46 | 0.0 | 6.0 | 0.00 | 0.00 | 0.00 | 75 | 1012.2 |
| 20260905211654 | 74 | 63 | 0.0 | 4.0 | 0.00 | 0.00 | 0.00 | 76 | 1012.2 |
| 20260905210649 | 73 | 132 | 0.0 | 0.0 | 0.00 | 0.00 | 0.00 | 79 | 1012.2 |
| 20260905205705 | 73 | 141 | 0.0 | 0.0 | 0.00 | 0.00 | 0.00 | 79 | 1012.4 |
| 20260905204646 | 73 | 45 | 0.0 | 1.0 | 0.00 | 0.00 | 0.00 | 78 | 1012.3 |
| 20260905203704 | 73 | 71 | 0.0 | 1.0 | 0.00 | 0.00 | 0.00 | 80 | 1012.4 |
| 20260905201610 | 74 | 46 | 0.0 | 1.0 | 0.00 | 0.00 | 0.00 | 79 | 1012.6 |
| 20260905195502 | 75 | 146 | 0.0 | 6.0 | 0.00 | 0.00 | 0.00 | 78 | 1012.6 |
| 20260905194515 | 75 | 61 | 0.0 | 4.0 | 0.00 | 0.00 | 0.00 | 77 | 1012.6 |
| 20260905193531 | 75 | 73 | 0.0 | 0.0 | 0.00 | 0.00 | 0.00 | 75 | 1012.5 |
| 20260905192501 | 76 | 22 | 0.0 | 0.0 | 0.00 | 0.00 | 0.00 | 76 | 1012.4 |
| 20260905191502 | 77 | 344 | 0.0 | 2.0 | 0.00 | 0.00 | 0.00 | 74 | 1012.3 |
| 20260905190428 | 78 | 26 | 0.0 | 6.0 | 0.00 | 0.00 | 0.00 | 76 | 1012.2 |
| 20260905185419 | 77 | 42 | 0.0 | 0.0 | 0.00 | 0.00 | 0.00 | 75 | 1012.2 |
| 20260905183334 | 77 | 106 | 0.0 | 0.0 | 0.00 | 0.00 | 0.00 | 78 | 1012.4 |
| 20260905181148 | 76 | 283 | 0.0 | 0.0 | 0.00 | 0.00 | 0.00 | 84 | 1012.6 |
| 20260905180159 | 76 | 58 | 0.0 | 4.0 | 0.00 | 0.00 | 0.00 | 83 | 1012.7 |
| 20260905175206 | 78 | 68 | 0.0 | 3.0 | 0.00 | 0.00 | 0.00 | 82 | 1012.7 |
| 20260905174202 | 77 | 37 | 0.0 | 7.0 | 0.00 | 0.01 | 0.00 | 82 | 1012.6 |
| 20260905173220 | 77 | 85 | 0.0 | 1.0 | 0.00 | 0.01 | 0.00 | 81 | 1012.6 |
| 20260905171052 | 77 | 65 | 0.0 | 3.0 | 0.00 | 0.01 | 0.00 | 85 | 1012.6 |
| 20260905163818 | 76 | 107 | 0.0 | 3.0 | 0.00 | 0.01 | 0.00 | 84 | 1012.7 |
| 20260905162812 | 76 | 38 | 0.0 | 2.0 | 0.00 | 0.01 | 0.00 | 86 | 1012.8 |
| 20260905161754 | 77 | 43 | 0.0 | 5.0 | 0.00 | 0.01 | 0.00 | 87 | 1012.8 |
| 20260905160741 | 75 | 64 | 0.0 | 1.0 | 0.00 | 0.03 | 0.00 | 89 | 1012.7 |
| 20260905155727 | 75 | 311 | 0.0 | 0.0 | 0.00 | 0.09 | 0.00 | 91 | 1012.8 |
| 20260905154656 | 74 | 57 | 0.0 | 0.0 | 0.00 | 0.09 | 0.00 | 92 | 1012.8 |
| 20260905153652 | 73 | 71 | 0.0 | 0.0 | 0.00 | 0.10 | 0.00 | 94 | 1012.7 |
| 20260905151506 | 73 | 92 | 0.0 | 6.0 | 0.00 | 0.10 | 0.00 | 93 | 1012.5 |
| 20260905150508 | 74 | 238 | 0.0 | 0.0 | 0.00 | 0.10 | 0.00 | 93 | 1012.4 |
| 20260905144305 | 73 | 238 | 0.0 | 1.0 | 0.00 | 0.10 | 0.00 | 95 | 1012.3 |
| 20260905142138 | 73 | 238 | 0.0 | 0.0 | 0.00 | 0.10 | 0.00 | 96 | 1012.1 |
| 20260905141126 | 73 | 238 | 0.0 | 0.0 | 0.00 | 0.13 | 0.00 | 95 | 1012.1 |
| 20260905140116 | 73 | 238 | 0.0 | 0.0 | 0.00 | 0.14 | 0.00 | 95 | 1012.1 |
| 20260905135140 | 73 | 238 | 0.0 | 0.0 | 0.00 | 0.14 | 0.00 | 96 | 1012.1 |
| 20260905134113 | 73 | 238 | 0.0 | 0.0 | 0.00 | 0.16 | 0.00 | 95 | 1012.2 |
| 20260905133039 | 74 | 238 | 0.0 | 1.0 | 0.00 | 0.16 | 0.00 | 97 | 1012.1 |
| 20260905132026 | 72 | 295 | 0.0 | 0.0 | 0.00 | 0.18 | 0.00 | 98 | 1012.0 |
| 20260905131030 | 72 | 296 | 0.0 | 0.0 | 0.00 | 0.19 | 0.00 | 99 | 1012.4 |
| 20260905130014 | 72 | 296 | 0.0 | 0.0 | 0.00 | 0.20 | 0.00 | 99 | 1012.3 |
| 20260905124951 | 72 | 295 | 0.0 | 0.0 | 0.00 | 0.21 | 0.00 | 99 | 1012.2 |
| 20260905123948 | 71 | 295 | 0.0 | 0.0 | 0.00 | 0.21 | 0.00 | 99 | 1012.0 |
| 20260905121809 | 70 | 295 | 0.0 | 0.0 | 0.00 | 0.21 | 0.00 | 99 | 1012.0 |
| 20260905120751 | 70 | 295 | 0.0 | 0.0 | 0.00 | 0.21 | 0.00 | 99 | 1012.2 |
| 20260905115805 | 70 | 128 | 0.0 | 0.0 | 0.00 | 0.21 | 0.00 | 99 | 1012.1 |
| 20260905114737 | 70 | 128 | 0.0 | 0.0 | 0.00 | 0.21 | 0.00 | 99 | 1011.9 |
| 20260905113728 | 70 | 243 | 0.0 | 0.0 | 0.00 | 0.21 | 0.00 | 99 | 1011.8 |
| 20260905112701 | 70 | 243 | 0.0 | 0.0 | 0.00 | 0.21 | 0.00 | 99 | 1011.8 |
| 20260905111700 | 70 | 243 | 0.0 | 0.0 | 0.00 | 0.21 | 0.00 | 99 | 1012.0 |
| 20260905110702 | 70 | 243 | 0.0 | 0.0 | 0.00 | 0.21 | 0.00 | 99 | 1011.9 |
| 20260905104459 | 70 | 225 | 0.0 | 0.0 | 0.00 | 0.21 | 0.00 | 99 | 1012.3 |
| 20260905103443 | 70 | 243 | 0.0 | 0.0 | 0.00 | 0.21 | 0.00 | 99 | 1012.2 |
| 20260905102429 | 70 | 243 | 0.0 | 0.0 | 0.00 | 0.21 | 0.00 | 99 | 1012.6 |
| 20260905101436 | 69 | 228 | 0.0 | 1.0 | 0.00 | 0.21 | 0.00 | 99 | 1012.7 |
| 20260905095235 | 69 | 167 | 0.0 | 0.0 | 0.00 | 0.21 | 0.00 | 99 | 1012.7 |
| 20260905093125 | 69 | 167 | 0.0 | 0.0 | 0.00 | 0.21 | 0.00 | 99 | 1012.4 |
| 20260905092112 | 68 | 167 | 0.0 | 0.0 | 0.00 | 0.21 | 0.00 | 99 | 1012.0 |
| 20260905091130 | 69 | 167 | 0.0 | 0.0 | 0.00 | 0.21 | 0.00 | 99 | 1011.7 |
| 20260905090135 | 69 | 167 | 0.0 | 0.0 | 0.00 | 0.21 | 0.00 | 99 | 1011.7 |
| 20260905084021 | 69 | 148 | 0.0 | 0.0 | 0.00 | 0.23 | 0.00 | 99 | 1011.6 |
| 20260905083008 | 68 | 116 | 0.0 | 0.0 | 0.00 | 0.23 | 0.00 | 99 | 1011.6 |
| 20260905080837 | 68 | 116 | 0.0 | 0.0 | 0.00 | 0.23 | 0.00 | 99 | 1010.9 |
| 20260905075816 | 68 | 116 | 0.0 | 0.0 | 0.00 | 0.23 | 0.00 | 99 | 1011.2 |
| 20260905073659 | 68 | 116 | 0.0 | 0.0 | 0.00 | 0.23 | 0.00 | 99 | 1011.4 |
| 20260905072649 | 68 | 101 | 0.0 | 0.0 | 0.00 | 0.23 | 0.00 | 99 | 1011.2 |
| 20260905071637 | 68 | 116 | 0.0 | 0.0 | 0.00 | 0.23 | 0.00 | 99 | 1011.2 |
| 20260905070605 | 68 | 116 | 0.0 | 0.0 | 0.00 | 0.23 | 0.00 | 99 | 1011.5 |
| 20260905065615 | 68 | 116 | 0.0 | 0.0 | 0.00 | 0.23 | 0.00 | 99 | 1011.6 |
| 20260905063501 | 69 | 116 | 0.0 | 0.0 | 0.00 | 0.23 | 0.00 | 99 | 1011.6 |
| 20260905062437 | 69 | 116 | 0.0 | 0.0 | 0.00 | 0.23 | 0.00 | 99 | 1011.7 |
| 20260905061414 | 69 | 101 | 0.0 | 0.0 | 0.00 | 0.23 | 0.00 | 99 | 1011.7 |
| 20260905060359 | 69 | 116 | 0.0 | 0.0 | 0.00 | 0.23 | 0.00 | 99 | 1011.8 |
| 20260905055352 | 69 | 116 | 0.0 | 0.0 | 0.00 | 0.23 | 0.00 | 99 | 1012.1 |
| 20260905054408 | 70 | 116 | 0.0 | 0.0 | 0.00 | 0.23 | 0.00 | 99 | 1012.3 |
| 20260905053410 | 69 | 116 | 0.0 | 0.0 | 0.00 | 0.23 | 0.00 | 99 | 1012.5 |
| 20260905052338 | 69 | 116 | 0.0 | 0.0 | 0.00 | 0.23 | 0.00 | 99 | 1012.4 |
| 20260905050140 | 69 | 116 | 0.0 | 0.0 | 0.00 | 0.23 | 0.00 | 99 | 1012.7 |